FW6817 Weather Reports


time (UTC)temp
C
wind
direction
speed
KPH
gust
KPH
rain 1hr
cm
rain 24hr
cm
rain mn
cm
humidity
%
barometer
mb
20260504214048 24 169 1.6 8.0 0.00 0.00 0.00 38 1013.8
20260504213544 24 0 0.0 6.4 0.00 0.00 0.00 37 1013.8
20260504213058 24 240 1.6 6.4 0.00 0.00 0.00 37 1013.9
20260504212547 25 163 1.6 8.0 0.00 0.00 0.00 37 1013.8
20260504212048 25 148 1.6 8.0 0.00 0.00 0.00 38 1013.9
20260504211553 25 284 1.6 8.0 0.00 0.00 0.00 37 1013.8
20260504211049 25 213 1.6 6.4 0.00 0.00 0.00 38 1013.9
20260504210548 25 186 1.6 6.4 0.00 0.00 0.00 36 1013.9
20260504210054 25 284 0.0 6.4 0.00 0.00 0.00 39 1013.9
20260504205544 25 220 0.0 9.7 0.00 0.00 0.00 37 1014.0
20260504205047 26 266 1.6 9.7 0.00 0.00 0.00 36 1014.1
20260504204555 26 274 1.6 9.7 0.00 0.00 0.00 36 1014.0
20260504204046 26 224 0.0 9.7 0.00 0.00 0.00 38 1014.1
20260504203549 25 143 1.6 9.7 0.00 0.00 0.00 36 1014.1
20260504203104 26 261 1.6 6.4 0.00 0.00 0.00 36 1014.2
20260504202547 26 0 1.6 6.4 0.00 0.00 0.00 36 1014.3
20260504202047 26 311 1.6 11.3 0.00 0.00 0.00 36 1014.2
20260504201559 26 219 3.2 11.3 0.00 0.00 0.00 38 1014.2
20260504201047 26 329 0.0 8.0 0.00 0.00 0.00 38 1014.1
20260504200547 26 192 3.2 8.0 0.00 0.00 0.00 36 1014.2
20260504200053 26 0 0.0 8.0 0.00 0.00 0.00 36 1014.2
20260504195548 26 257 1.6 8.0 0.00 0.00 0.00 34 1014.2
20260504195046 26 279 1.6 8.0 0.00 0.00 0.00 35 1014.4
20260504194552 26 286 1.6 6.4 0.00 0.00 0.00 35 1014.5
20260504194048 26 282 1.6 8.0 0.00 0.00 0.00 36 1014.4
20260504193548 26 229 1.6 8.0 0.00 0.00 0.00 38 1014.5
20260504193054 26 243 0.0 6.4 0.00 0.00 0.00 39 1014.4
20260504192546 26 306 0.0 6.4 0.00 0.00 0.00 36 1014.5
20260504192047 26 0 1.6 6.4 0.00 0.00 0.00 38 1014.7
20260504191608 26 213 1.6 11.3 0.00 0.00 0.00 38 1014.8
20260504191047 26 213 1.6 11.3 0.00 0.00 0.00 35 1014.8
20260504190547 26 267 1.6 11.3 0.00 0.00 0.00 40 1014.8
20260504190051 26 217 1.6 9.7 0.00 0.00 0.00 39 1014.9
20260504185547 26 279 1.6 12.9 0.00 0.00 0.00 35 1015.1
20260504185046 26 61 1.6 12.9 0.00 0.00 0.00 36 1015.2
20260504184550 26 284 1.6 9.7 0.00 0.00 0.00 40 1015.2
20260504184047 26 0 1.6 8.0 0.00 0.00 0.00 36 1015.2
20260504183547 25 0 1.6 6.4 0.00 0.00 0.00 37 1015.3
20260504183047 26 0 1.6 6.4 0.00 0.00 0.00 35 1015.3
20260504182547 26 0 0.0 12.9 0.00 0.00 0.00 36 1015.3
20260504182054 25 244 0.0 12.9 0.00 0.00 0.00 35 1015.4
20260504181555 26 288 0.0 4.8 0.00 0.00 0.00 33 1015.3
20260504181048 26 152 0.0 4.8 0.00 0.00 0.00 37 1015.4
20260504180546 25 233 1.6 6.4 0.00 0.00 0.00 39 1015.4
20260504180057 25 284 1.6 8.0 0.00 0.00 0.00 34 1015.4
20260504175550 25 266 1.6 8.0 0.00 0.00 0.00 34 1015.5
20260504175049 25 192 1.6 11.3 0.00 0.00 0.00 34 1015.6
20260504174554 25 333 3.2 11.3 0.00 0.00 0.00 35 1015.5
20260504174047 25 0 1.6 8.0 0.00 0.00 0.00 35 1015.5
20260504173546 25 315 1.6 8.0 0.00 0.00 0.00 36 1015.5
20260504173055 25 347 0.0 6.4 0.00 0.00 0.00 35 1015.5
20260504172546 25 230 1.6 6.4 0.00 0.00 0.00 37 1015.5
20260504172048 24 0 1.6 6.4 0.00 0.00 0.00 38 1015.6
20260504171554 24 167 0.0 9.7 0.00 0.00 0.00 37 1015.6
20260504171048 23 0 1.6 9.7 0.00 0.00 0.00 37 1015.5
20260504170547 23 205 3.2 9.7 0.00 0.00 0.00 35 1015.8
20260504151047 19 248 0.0 4.8 0.00 0.00 0.00 62 1017.4
20260504150550 18 0 0.0 4.8 0.00 0.00 0.00 56 1017.4
20260504141047 14 284 0.0 4.8 0.00 0.00 0.00 71 1017.4
20260504140552 14 284 1.6 4.8 0.00 0.00 0.00 69 1017.3
20260504140104 13 0 0.0 4.8 0.00 0.00 0.00 72 1017.3
20260504130548 11 0 0.0 0.0 0.00 0.00 0.00 80 1017.5
20260504110549 7 0 0.0 0.0 0.00 0.00 0.00 85 1017.4
20260504100550 7 0 0.0 0.0 0.00 0.00 0.00 82 1017.2
20260504081556 8 0 0.0 0.0 0.00 0.00 0.00 76 1017.0
20260504081050 8 0 0.0 0.0 0.00 0.00 0.00 76 1016.9
20260504080550 8 0 0.0 0.0 0.00 0.00 0.00 76 1016.9
20260504050549 10 328 0.0 3.2 0.00 0.00 0.00 69 1017.0
20260504050105 10 0 0.0 3.2 0.00 0.00 0.00 68 1017.0
20260504045549 10 0 0.0 3.2 0.00 0.00 0.00 67 1017.1
20260504045048 10 0 0.0 3.2 0.00 0.00 0.00 68 1017.1
20260504044552 10 0 0.0 3.2 0.00 0.00 0.00 67 1017.1
20260504044048 10 0 0.0 1.6 0.00 0.00 0.00 66 1017.1
20260504043548 10 0 0.0 1.6 0.00 0.00 0.00 65 1017.1
20260504043055 10 0 0.0 0.0 0.00 0.00 0.00 64 1017.2
20260504042548 10 0 0.0 0.0 0.00 0.00 0.00 64 1017.1
20260504042050 10 0 0.0 0.0 0.00 0.00 0.00 63 1017.2
20260504041558 10 0 0.0 1.6 0.00 0.00 0.00 62 1017.2
20260504041046 11 0 0.0 1.6 0.00 0.00 0.00 62 1017.2
20260504040545 11 0 0.0 1.6 0.00 0.00 0.00 60 1017.2
20260504040056 11 0 0.0 0.0 0.00 0.00 0.00 59 1017.2
20260504035549 11 0 0.0 0.0 0.00 0.00 0.00 58 1017.3
20260504035049 11 0 0.0 0.0 0.00 0.00 0.00 56 1017.4
20260504034551 12 0 0.0 0.0 0.00 0.00 0.00 56 1017.3
20260504034052 12 0 0.0 0.0 0.00 0.00 0.00 56 1017.3
20260504033548 13 0 0.0 3.2 0.00 0.00 0.00 52 1017.3
20260504033052 13 0 0.0 4.8 0.00 0.00 0.00 52 1017.4
20260504032549 13 0 1.6 4.8 0.00 0.00 0.00 50 1017.4
20260504032049 13 217 0.0 3.2 0.00 0.00 0.00 50 1017.4
20260504031551 13 0 1.6 4.8 0.00 0.00 0.00 51 1017.3
20260504031048 13 219 1.6 4.8 0.00 0.00 0.00 51 1017.4
20260504030548 13 219 0.0 4.8 0.00 0.00 0.00 50 1017.4
20260504030052 13 219 0.0 4.8 0.00 0.00 0.00 50 1017.3
20260504025548 13 219 1.6 4.8 0.00 0.00 0.00 50 1017.2
20260504025045 13 219 1.6 3.2 0.00 0.00 0.00 50 1017.2
20260504024607 13 219 1.6 3.2 0.00 0.00 0.00 49 1017.2
20260504024048 13 219 1.6 3.2 0.00 0.00 0.00 50 1017.2
20260504023548 13 222 1.6 3.2 0.00 0.00 0.00 52 1017.2
20260504023053 13 222 1.6 3.2 0.00 0.00 0.00 50 1017.2
20260504022549 13 0 0.0 3.2 0.00 0.00 0.00 52 1017.0
20260504022048 12 222 1.6 3.2 0.00 0.00 0.00 55 1017.0
20260504021555 12 0 0.0 1.6 0.00 0.00 0.00 58 1017.0
20260504021048 12 0 0.0 1.6 0.00 0.00 0.00 62 1016.9
20260504020548 12 0 0.0 1.6 0.00 0.00 0.00 60 1017.0
20260504020051 12 0 0.0 1.6 0.00 0.00 0.00 58 1016.9
20260504015547 12 0 0.0 0.0 0.00 0.00 0.00 59 1016.9
20260504015047 12 0 0.0 0.0 0.00 0.00 0.00 59 1016.8
20260504014556 12 0 0.0 0.0 0.00 0.00 0.00 56 1016.9
20260504014047 12 0 0.0 0.0 0.00 0.00 0.00 59 1016.8
20260504013547 12 0 0.0 0.0 0.00 0.00 0.00 61 1016.7
20260504013056 12 0 0.0 0.0 0.00 0.00 0.00 58 1016.7
20260504012550 12 0 0.0 0.0 0.00 0.00 0.00 57 1016.6
20260504012050 12 0 0.0 0.0 0.00 0.00 0.00 56 1016.7
20260504011554 12 0 0.0 0.0 0.00 0.00 0.00 55 1016.6
20260504011047 12 0 0.0 0.0 0.00 0.00 0.00 53 1016.5
20260504010547 12 0 0.0 0.0 0.00 0.00 0.00 53 1016.5
20260504010055 12 0 0.0 0.0 0.00 0.00 0.00 53 1016.3
20260504005652 12 0 0.0 0.0 0.00 0.00 0.00 54 1016.2
20260504005047 12 0 0.0 0.0 0.00 0.00 0.00 53 1016.2
20260504004553 12 0 0.0 0.0 0.00 0.00 0.00 53 1016.1
20260504004047 12 0 0.0 0.0 0.00 0.00 0.00 54 1016.2
20260504003549 12 0 0.0 0.0 0.00 0.00 0.00 54 1016.1
20260504003055 12 0 0.0 0.0 0.00 0.00 0.00 56 1016.1
20260504002547 13 0 0.0 0.0 0.00 0.00 0.00 54 1016.0
20260504002047 13 0 0.0 0.0 0.00 0.00 0.00 55 1016.0
20260504001552 13 0 0.0 0.0 0.00 0.00 0.00 55 1016.1
20260504001048 13 0 0.0 0.0 0.00 0.00 0.00 54 1016.1
20260504000548 13 0 0.0 0.0 0.00 0.00 0.00 57 1016.0
20260504000135 13 0 0.0 0.0 0.00 0.00 0.00 58 1016.0
20260503235547 13 0 0.0 0.0 0.00 0.00 0.00 54 1016.0
20260503235049 14 0 0.0 0.0 0.00 0.00 0.00 53 1016.0
20260503234602 14 0 0.0 1.6 0.00 0.00 0.00 56 1016.0
20260503234049 15 0 0.0 3.2 0.00 0.00 0.00 53 1016.0
20260503233547 15 0 0.0 3.2 0.00 0.00 0.00 52 1015.9
20260503233052 15 0 0.0 1.6 0.00 0.00 0.00 48 1015.9
20260503232548 15 0 0.0 1.6 0.00 0.00 0.00 49 1015.9
20260503232047 15 224 0.0 3.2 0.00 0.00 0.00 47 1015.9
20260503231555 15 0 0.0 3.2 0.00 0.00 0.00 47 1015.9
20260503231047 16 224 0.0 3.2 0.00 0.00 0.00 46 1016.0
20260503230547 16 0 0.0 1.6 0.00 0.00 0.00 45 1015.9
20260503230055 16 0 0.0 4.8 0.00 0.00 0.00 41 1016.0
20260503225549 16 0 0.0 4.8 0.00 0.00 0.00 40 1016.0
20260503225048 16 294 1.6 4.8 0.00 0.00 0.00 45 1016.0
20260503224558 16 298 0.0 4.8 0.00 0.00 0.00 43 1016.0
20260503224049 16 0 0.0 0.0 0.00 0.00 0.00 40 1016.1
20260503223545 16 0 0.0 0.0 0.00 0.00 0.00 39 1016.1
20260503223053 17 0 0.0 1.6 0.00 0.00 0.00 39 1016.2
20260503222544 17 0 0.0 6.4 0.00 0.00 0.00 38 1016.2
20260503222044 17 0 0.0 6.4 0.00 0.00 0.00 37 1016.4
20260503221556 17 0 1.6 6.4 0.00 0.00 0.00 38 1016.4
20260503221049 17 297 1.6 4.8 0.00 0.00 0.00 39 1016.4
20260503220549 17 262 0.0 4.8 0.00 0.00 0.00 40 1016.4
20260503220054 17 0 0.0 4.8 0.00 0.00 0.00 37 1016.5
20260503215549 17 0 1.6 4.8 0.00 0.00 0.00 37 1016.5
20260503215045 17 280 0.0 4.8 0.00 0.00 0.00 36 1016.4
20260503214555 17 338 0.0 4.8 0.00 0.00 0.00 35 1016.6